Zurück zum Katalog

STARLINK-4549

AktivKommunikationVLEO
NORAD 53433·PAYLOAD·🇺🇸 United States

Gestartet Aug 10, 2022 von Cape Canaveral Space Force Station

Loading…

Nächste Überflüge (nächste 24 Stunden)

TLE

AktuellSource: CelesTrak SupGP

Epoche: Sep 15, 2026, 02:23 UTC

1 53433C 22097AX  26258.09979167  .00042464  00000+0  12154-2 0  2581
2 53433  53.1582 324.8737 0001256  94.7633  35.5885 15.35366241    15

Verfolge STARLINK-4549 in Echtzeit mit AllMySat

Download on the App Store